| time (UTC) | temp C | wind direction | speed KPH | gust KPH | rain 1hr cm | rain 24hr cm | rain mn cm | humidity % | barometer mb |
| 20260831195101 | 40 | 135 | 14.5 | 16.1 | 0.00 | 0.00 | 0.00 | 25 | 1054.9 |
| 20260831192102 | 40 | 204 | 6.4 | 17.7 | 0.00 | 0.00 | 0.00 | 25 | 1055.2 |
| 20260831191102 | 40 | 110 | 8.0 | 14.5 | 0.00 | 0.00 | 0.00 | 25 | 1055.2 |
| 20260831185603 | 39 | 120 | 6.4 | 16.1 | 0.00 | 0.00 | 0.00 | 27 | 1055.5 |
| 20260831184103 | 39 | 180 | 11.3 | 12.9 | 0.00 | 0.00 | 0.00 | 27 | 1055.5 |
| 20260831182602 | 38 | 251 | 9.7 | 14.5 | 0.00 | 0.00 | 0.00 | 28 | 1055.9 |
| 20260831181102 | 38 | 89 | 4.8 | 17.7 | 0.00 | 0.00 | 0.00 | 29 | 1055.9 |
| 20260831175603 | 38 | 182 | 6.4 | 14.5 | 0.00 | 0.00 | 0.00 | 29 | 1055.9 |
| 20260831174602 | 38 | 192 | 14.5 | 17.7 | 0.00 | 0.00 | 0.00 | 31 | 1056.2 |
| 20260831164602 | 37 | 32 | 12.9 | 19.3 | 0.00 | 0.00 | 0.00 | 35 | 1056.6 |
| 20260831163102 | 36 | 208 | 14.5 | 14.5 | 0.00 | 0.00 | 0.00 | 35 | 1056.6 |
| 20260831161602 | 36 | 179 | 9.7 | 17.7 | 0.00 | 0.00 | 0.00 | 36 | 1056.6 |
| 20260831154602 | 35 | 289 | 11.3 | 22.5 | 0.00 | 0.00 | 0.00 | 38 | 1056.6 |
| 20260831153105 | 35 | 211 | 11.3 | 17.7 | 0.00 | 0.00 | 0.00 | 39 | 1056.6 |
| 20260831151601 | 34 | 199 | 4.8 | 20.9 | 0.00 | 0.00 | 0.00 | 40 | 1056.9 |
| 20260831145102 | 33 | 256 | 11.3 | 16.1 | 0.00 | 0.00 | 0.00 | 42 | 1056.9 |
| 20260831143602 | 33 | 169 | 16.1 | 20.9 | 0.00 | 0.00 | 0.00 | 43 | 1056.9 |
| 20260831142102 | 32 | 207 | 8.0 | 17.7 | 0.00 | 0.00 | 0.00 | 45 | 1056.9 |
| 20260831140602 | 31 | 196 | 3.2 | 12.9 | 0.00 | 0.00 | 0.00 | 46 | 1056.9 |
| 20260831135101 | 31 | 153 | 11.3 | 12.9 | 0.00 | 0.00 | 0.00 | 47 | 1056.9 |
| 20260831133602 | 30 | 198 | 8.0 | 9.7 | 0.00 | 0.00 | 0.00 | 48 | 1056.6 |
| 20260831132102 | 29 | 230 | 9.7 | 12.9 | 0.00 | 0.00 | 0.00 | 50 | 1056.6 |
| 20260831130602 | 28 | 183 | 4.8 | 12.9 | 0.00 | 0.00 | 0.00 | 51 | 1056.6 |
| 20260831125102 | 27 | 182 | 4.8 | 9.7 | 0.00 | 0.00 | 0.00 | 52 | 1056.2 |
| 20260831123602 | 26 | 152 | 3.2 | 11.3 | 0.00 | 0.00 | 0.00 | 55 | 1055.9 |
| 20260831122601 | 26 | 202 | 8.0 | 9.7 | 0.00 | 0.00 | 0.00 | 53 | 1055.9 |
| 20260831121102 | 26 | 178 | 3.2 | 9.7 | 0.00 | 0.00 | 0.00 | 53 | 1055.5 |
| 20260831115603 | 26 | 154 | 4.8 | 11.3 | 0.00 | 0.00 | 0.00 | 53 | 1055.5 |
| 20260831114102 | 26 | 195 | 4.8 | 8.0 | 0.00 | 0.00 | 0.00 | 52 | 1055.2 |
| 20260831113101 | 26 | 192 | 4.8 | 6.4 | 0.00 | 0.00 | 0.00 | 52 | 1055.2 |
| 20260831104602 | 27 | 222 | 4.8 | 11.3 | 0.00 | 0.00 | 0.00 | 50 | 1054.5 |
| 20260831103601 | 27 | 167 | 4.8 | 12.9 | 0.00 | 0.00 | 0.00 | 50 | 1054.5 |
| 20260831102102 | 27 | 115 | 3.2 | 11.3 | 0.00 | 0.00 | 0.00 | 49 | 1054.5 |
| 20260831100602 | 27 | 143 | 4.8 | 12.9 | 0.00 | 0.00 | 0.00 | 48 | 1054.5 |
| 20260831095102 | 28 | 212 | 6.4 | 12.9 | 0.00 | 0.00 | 0.00 | 47 | 1054.2 |
| 20260831092102 | 28 | 170 | 4.8 | 17.7 | 0.00 | 0.00 | 0.00 | 46 | 1054.2 |
| 20260831090602 | 28 | 86 | 9.7 | 16.1 | 0.00 | 0.00 | 0.00 | 45 | 1054.2 |
| 20260831085102 | 28 | 256 | 19.3 | 20.9 | 0.00 | 0.00 | 0.00 | 45 | 1053.8 |
| 20260831083602 | 29 | 239 | 12.9 | 16.1 | 0.00 | 0.00 | 0.00 | 45 | 1054.2 |
| 20260831082104 | 29 | 158 | 9.7 | 20.9 | 0.00 | 0.00 | 0.00 | 44 | 1054.2 |
| 20260831081102 | 30 | 202 | 11.3 | 19.3 | 0.00 | 0.00 | 0.00 | 44 | 1054.2 |
| 20260831075602 | 30 | 178 | 9.7 | 17.7 | 0.00 | 0.00 | 0.00 | 43 | 1054.2 |
| 20260831072601 | 30 | 143 | 4.8 | 11.3 | 0.00 | 0.00 | 0.00 | 42 | 1053.8 |
| 20260831071102 | 30 | 141 | 4.8 | 12.9 | 0.00 | 0.00 | 0.00 | 41 | 1053.8 |
| 20260831065602 | 30 | 128 | 6.4 | 16.1 | 0.00 | 0.00 | 0.00 | 40 | 1053.8 |
| 20260831064104 | 30 | 164 | 12.9 | 16.1 | 0.00 | 0.00 | 0.00 | 40 | 1053.8 |
| 20260831063101 | 30 | 204 | 4.8 | 17.7 | 0.00 | 0.00 | 0.00 | 40 | 1053.8 |
| 20260831061602 | 31 | 174 | 8.0 | 16.1 | 0.00 | 0.00 | 0.00 | 39 | 1053.8 |
| 20260831054602 | 31 | 167 | 11.3 | 12.9 | 0.00 | 0.00 | 0.00 | 39 | 1053.8 |
| 20260831053102 | 31 | 213 | 8.0 | 22.5 | 0.00 | 0.00 | 0.00 | 39 | 1053.5 |
| 20260831051602 | 31 | 155 | 14.5 | 14.5 | 0.00 | 0.00 | 0.00 | 40 | 1053.5 |
| 20260831044602 | 31 | 178 | 11.3 | 19.3 | 0.00 | 0.00 | 0.00 | 40 | 1053.5 |
| 20260831043102 | 31 | 184 | 11.3 | 16.1 | 0.00 | 0.00 | 0.00 | 40 | 1053.5 |
| 20260831041601 | 31 | 198 | 11.3 | 14.5 | 0.00 | 0.00 | 0.00 | 39 | 1053.5 |
| 20260831035101 | 32 | 191 | 4.8 | 14.5 | 0.00 | 0.00 | 0.00 | 38 | 1053.5 |
| 20260831033602 | 32 | 173 | 12.9 | 16.1 | 0.00 | 0.00 | 0.00 | 37 | 1053.5 |
| 20260831030602 | 33 | 147 | 11.3 | 16.1 | 0.00 | 0.00 | 0.00 | 37 | 1053.2 |
| 20260831025102 | 33 | 177 | 14.5 | 17.7 | 0.00 | 0.00 | 0.00 | 37 | 1053.2 |
| 20260831024102 | 33 | 195 | 8.0 | 16.1 | 0.00 | 0.00 | 0.00 | 36 | 1052.8 |
| 20260831022602 | 33 | 227 | 11.3 | 19.3 | 0.00 | 0.00 | 0.00 | 35 | 1052.5 |
| 20260831021102 | 33 | 165 | 20.9 | 20.9 | 0.00 | 0.00 | 0.00 | 34 | 1052.2 |
| 20260831015602 | 34 | 170 | 8.0 | 14.5 | 0.00 | 0.00 | 0.00 | 34 | 1052.2 |
| 20260831014102 | 35 | 124 | 6.4 | 14.5 | 0.00 | 0.00 | 0.00 | 33 | 1051.8 |
| 20260831012602 | 35 | 145 | 6.4 | 12.9 | 0.00 | 0.00 | 0.00 | 32 | 1051.8 |
| 20260831011202 | 35 | 165 | 4.8 | 12.9 | 0.00 | 0.00 | 0.00 | 31 | 1051.5 |
| 20260831004602 | 36 | 178 | 16.1 | 20.9 | 0.00 | 0.00 | 0.00 | 29 | 1051.5 |
| 20260831001603 | 37 | 218 | 17.7 | 17.7 | 0.00 | 0.00 | 0.00 | 28 | 1051.5 |
| 20260831000602 | 37 | 168 | 12.9 | 14.5 | 0.00 | 0.00 | 0.00 | 27 | 1051.5 |
| 20260830235102 | 38 | 182 | 9.7 | 22.5 | 0.00 | 0.00 | 0.00 | 27 | 1051.5 |
| 20260830233603 | 38 | 186 | 9.7 | 17.7 | 0.00 | 0.00 | 0.00 | 27 | 1051.5 |
| 20260830232602 | 38 | 176 | 11.3 | 20.9 | 0.00 | 0.00 | 0.00 | 26 | 1051.5 |
| 20260830231102 | 39 | 127 | 16.1 | 17.7 | 0.00 | 0.00 | 0.00 | 26 | 1051.5 |
| 20260830224102 | 39 | 194 | 4.8 | 16.1 | 0.00 | 0.00 | 0.00 | 25 | 1051.5 |
| 20260830222604 | 39 | 147 | 11.3 | 22.5 | 0.00 | 0.00 | 0.00 | 25 | 1051.5 |
| 20260830221102 | 40 | 194 | 17.7 | 17.7 | 0.00 | 0.00 | 0.00 | 25 | 1051.5 |
| 20260830215602 | 40 | 184 | 9.7 | 17.7 | 0.00 | 0.00 | 0.00 | 25 | 1051.5 |
| 20260830214102 | 40 | 126 | 16.1 | 20.9 | 0.00 | 0.00 | 0.00 | 25 | 1051.8 |
| 20260830212602 | 40 | 187 | 16.1 | 20.9 | 0.00 | 0.00 | 0.00 | 25 | 1051.8 |
| 20260830211102 | 40 | 223 | 16.1 | 17.7 | 0.00 | 0.00 | 0.00 | 25 | 1052.2 |
| 20260830205602 | 40 | 166 | 14.5 | 20.9 | 0.00 | 0.00 | 0.00 | 25 | 1052.5 |
| 20260830202601 | 41 | 207 | 11.3 | 17.7 | 0.00 | 0.00 | 0.00 | 25 | 1052.8 |
| 20260830201102 | 40 | 220 | 9.7 | 17.7 | 0.00 | 0.00 | 0.00 | 26 | 1052.8 |